Погода в Кукелеве

Россия / Еврейская автономная область     47°53′21″N   132°31′15″E
темп.,
°C
ветер,
м/с
пор.,
м/с
влажн.,
%
обл.,
%
осадки,
мм/ч
давл.,
гПа
погр.,
м
14 мая, пт
пт1401:00+10ссз237954 0.1 100833
04:00+9сз228220 0.1 100917
07:00+10сз11771 0.0 101034
10:00+16ююз22534 0.0 1010485
13:00+21юз353564 0.0 10101176
16:00+23юз4624100 0.0 10082948
19:00+20ююв3643100 0.0 1007103
22:00+17ююв61646100 0.0 1006528
15 мая, сб
сб1501:00+15ююв61652100 0.0 1003595
04:00+14ю81692100 2.4 1000919
07:00+12ю71593100 9.0 998775
10:00+14з61292100 10.8 998757
13:00+16з71167100 0.4 10001614
16:00+17з71150100 0.6 10002246
19:00+15з3861100 0.4 1001507
22:00+12зюз411650 0.4 1003284
16 мая, вс
вс1601:00+10зюз5137315 0.0 1003312
04:00+9зюз5126996 0.0 1004332
07:00+9зюз411720 0.0 1004401
10:00+15з612500 0.0 10041432
13:00+20з611315 0.0 10033022
16:00+22зсз6112529 0.0 10013451
19:00+20юз4841100 0.0 1000233
22:00+14юз38547 0.0 1000132
17 мая, пн
пн1701:00+14зюз5154992 0.0 1000489
04:00+11з35630 0.0 100099
07:00+12з23630 0.0 100266
10:00+19юз46402 0.0 1002529
13:00+23зюз610296 0.0 10012672
16:00+25зюз7102810 0.0 9993113
19:00+22з364277 0.0 999157
22:00+16св225220 0.0 100117
18 мая, вт
вт1801:00+15св2251100 0.0 100111
04:00+14в2252100 0.0 100111
07:00+14юв2259100 0.0 100248
10:00+20ю4651100 0.0 1001525
13:00+25юз6935100 0.0 10001315
16:00+27юз6931100 0.0 9981943
19:00+24юз51140100 0.0 998449
22:00+17юз336958 0.6 99946